Regional Weather Roundup
Issued by NWS

Home | Current Version | Previous Version | Graphics & Text | Print | Product List | Glossary On
Versions: 1 2 3 4 5 6 7 8 9 10 11 12 13 14 15 16 17 18 19 20 21 22 23 24 25 26 27 28 29 30 31 32 33 34 35 36 37 38 39 40 41 42 43 44 45 46 47 48 49 50
000
ASUS43 KOAX 302310
RWRNE

WEATHER ROUNDUP FOR NEBRASKA
NATIONAL WEATHER SERVICE OMAHA NE
500 PM CST FRI JAN 30 2015

NOTES: SATELLITE DATA IS BEING USED TO AUGMENT CLOUD COVER ABOVE
       12000 FEET.
       "FAIR" INDICATES FEW OR NO CLOUDS BELOW 12,000 FEET WITH NO
       SIGNIFICANT WEATHER AND/OR OBSTRUCTIONS TO VISIBILITY.

  * THESE STATIONS DO NOT REPORT WEATHER SUCH AS RAIN...SNOW OR FOG.

NEZ001>004-019>022-054>056-310000-
NEBRASKA PANHANDLE

CITY           SKY/WX    TMP DP  RH WIND       PRES   REMARKS
SCOTTSBLUFF    CLOUDY    44  30  57 CALM      30.10S
ALLIANCE       CLOUDY    44  28  53 E3        30.09F
CHADRON        MOCLDY    46  28  49 NE10      30.11F
KIMBALL        CLOUDY    41  27  57 NE7       30.08R
SIDNEY         CLOUDY    44  28  53 NE6       30.09S
$$

NEZ057>060-069>072-079>082-310000-
SOUTHWEST NEBRASKA

CITY           SKY/WX    TMP DP  RH WIND       PRES   REMARKS
NORTH PLATTE   CLOUDY    46  27  47 S14       30.15S
IMPERIAL       CLOUDY    48  29  47 S17G24    30.12F
LEXINGTON      CLOUDY    46  26  47 S18       30.20F
MCCOOK         CLOUDY    43  35  73 SE14      30.19F
OGALLALA       CLOUDY    50  34  53 S13G18    30.10S
$$

NEZ005>010-023>029-035>040-094-310000-
NORTH CENTRAL NEBRASKA

CITY           SKY/WX    TMP DP  RH WIND       PRES   REMARKS
VALENTINE      PTCLDY    49  27  42 S9        30.11F
AINSWORTH      PTCLDY    47  25  43 S6        30.14S
BROKEN BOW     CLOUDY    45  27  49 S14G25    30.18F
O`NEILL        PTCLDY    45  28  50 S13       30.18R
ORD            MOCLDY    42  24  49 S14       30.18F
THEDFORD       MOCLDY    48  29  49 S8        30.14S
$$

NEZ041-046>049-061>064-073>077-083>087-310000-
SOUTH CENTRAL NEBRASKA

CITY           SKY/WX    TMP DP  RH WIND       PRES   REMARKS
GRAND ISLAND   CLOUDY    43  25  49 S13       30.26F
AURORA         CLOUDY    43  25  50 S10       30.25F
HASTINGS       CLOUDY    43  24  47 S12G21    30.25F
HEBRON         CLOUDY    42  25  50 S10       30.32F
HOLDREGE       CLOUDY    43  25  48 S13G23    30.23F
KEARNEY *      CLOUDY    43  25  49 S17G23    30.24S
YORK           CLOUDY    41  27  56 S13       30.28F
$$

NEZ011>018-030>034-042>045-310000-
NORTHEAST NEBRASKA

CITY           SKY/WX    TMP DP  RH WIND       PRES   REMARKS
NORFOLK        PTCLDY    42  27  55 S7        30.23F
ALBION         MOCLDY    43  26  50 S7        30.23F
BLAIR          MOCLDY    37  25  61 S12       30.30F WCI  29
COLUMBUS *     MOCLDY    43  25  49 S10       30.28F
FREMONT        PTCLDY    40  26  57 S9        30.31F WCI  34
TEKAMAH        PTCLDY    38  26  62 S14       30.31F WCI  30
WAYNE          PTCLDY    41  28  59 S21       30.24F
$$

NEZ050>053-065>068-078-088>093-310000-
SOUTHEAST NEBRASKA

CITY           SKY/WX    TMP DP  RH WIND       PRES   REMARKS
LINCOLN        CLOUDY    40  26  57 S13       30.33F WCI  32
OMAHA EPPLEY   MOCLDY    35  24  64 SE12      30.34F WCI  27
BEATRICE       CLOUDY    40  26  55 S10       30.34F WCI  34
FALLS CITY     CLOUDY    38  23  55 S8        30.38F WCI  32
NEBRASKA CITY  MOCLDY    37  21  52 S7        30.35F WCI  32
PLATTSMOUTH    MOCLDY    36  22  58 S8        30.34F WCI  29
$$

NEZ044-045-051>053-067-310000-
OMAHA AREA

CITY           SKY/WX    TMP DP  RH WIND       PRES   REMARKS
OMAHA EPPLEY   MOCLDY    35  24  64 SE12      30.34F WCI  27
BLAIR          MOCLDY    37  25  61 S12       30.30F WCI  29
FREMONT        PTCLDY    40  26  57 S9        30.31F WCI  34
MILLARD        MOCLDY    40  26  56 S7        30.33F
OFFUTT AFB     PTCLDY    36  24  63 SE8       30.34F WCI  29
PLATTSMOUTH    MOCLDY    36  22  58 S8        30.34F WCI  29
WAHOO          FAIR      39  24  54 S10       30.31F WCI  32
$$



USA.gov is the U.S. government's official web portal to all federal, state and local government web resources and services.